EW9968 Weather Reports


time (UTC)temp
C
wind
direction
speed
KPH
gust
KPH
rain 1hr
cm
rain 24hr
cm
rain mn
cm
humidity
%
barometer
mb
20260507030013 -17 0.0 0.0 0.00 0.20 0.20 1005.5
20260507024508 -17 0.0 0.0 0.00 0.20 0.20 1005.4
20260507023004 -17 0.0 0.0 0.00 0.20 0.20 1005.7
20260507021600 -17 0.0 0.0 0.00 0.20 0.20 1005.6
20260507020055 -17 0.0 0.0 0.00 0.20 0.20 1005.2
20260507014604 14 186 0.0 1.6 0.00 0.20 0.20 94 1005.5
20260507013110 14 219 0.0 0.0 0.00 0.20 0.20 94 1005.6
20260507011549 14 233 0.0 1.6 0.00 0.20 0.20 94 1005.4
20260507010047 14 243 0.0 1.6 0.00 0.20 0.20 94 1005.6
20260507004548 14 220 0.0 1.6 0.00 0.20 0.20 94 1005.6
20260507003045 14 229 0.0 11.3 0.00 0.20 0.20 94 1005.7
20260507001604 14 203 0.0 0.0 0.00 0.20 0.20 94 1005.5
20260507000047 14 45 0.0 0.0 0.00 0.20 0.20 94 1005.4
20260506234543 14 225 0.0 0.0 0.00 0.20 0.20 94 1005.4
20260506233046 14 221 0.0 1.6 0.00 0.20 0.20 94 1005.2
20260506231547 15 236 0.0 1.6 0.03 0.20 0.20 93 1005.2
20260506230041 15 159 0.0 11.3 0.05 0.20 0.20 93 1005.3
20260506224540 15 207 0.0 0.0 0.05 0.20 0.20 93 1005.3
20260506223049 15 181 0.0 4.8 0.03 0.18 0.18 93 1005.4
20260506221537 15 188 0.0 6.4 0.03 0.18 0.18 92 1005.5
20260506220036 15 177 0.0 19.3 0.00 0.15 0.15 92 1005.6
20260506214535 15 242 0.0 6.4 0.03 0.15 0.15 91 1005.7
20260506213037 15 181 0.0 6.4 0.03 0.15 0.15 91 1005.8
20260506211533 15 189 0.0 4.8 0.03 0.15 0.15 91 1006.0
20260506210038 15 162 0.0 0.0 0.05 0.15 0.15 92 1006.2
20260506204530 15 205 0.0 9.7 0.05 0.13 0.13 91 1006.3
20260506203040 15 153 0.0 6.4 0.05 0.13 0.13 91 1006.3
20260506201529 15 214 1.6 11.3 0.05 0.13 0.13 90 1006.3
20260506200028 16 188 0.0 6.4 0.05 0.10 0.10 90 1006.1
20260506194528 16 227 0.0 6.4 0.08 0.08 0.08 89 1006.3
20260506193027 16 236 0.0 0.0 0.08 0.08 0.08 90 1006.4
20260506191529 17 214 0.0 0.0 0.08 0.08 0.08 88 1006.3
20260506190025 17 231 0.0 0.0 0.03 0.03 0.03 86 1006.2
20260506184524 18 269 0.0 9.7 0.00 0.00 0.00 81 1006.3
20260506183025 19 214 0.0 9.7 0.00 0.00 0.00 77 1006.6
20260506181530 20 226 0.0 12.9 0.00 0.00 0.00 72 1006.5
20260506180032 21 239 6.4 17.7 0.00 0.00 0.00 65 1006.7
20260506174523 22 210 0.0 8.0 0.00 0.00 0.00 64 1006.6
20260506173021 22 214 0.0 11.3 0.00 0.00 0.00 60 1006.4
20260506171536 23 193 1.6 17.7 0.00 0.00 0.00 59 1006.4
20260506170018 23 150 1.6 12.9 0.00 0.00 0.00 59 1006.6
20260506164516 22 103 0.0 14.5 0.00 0.00 0.00 62 1006.7
20260506163019 22 172 1.6 9.7 0.00 0.00 0.00 64 1006.9
20260506161519 21 226 0.0 14.5 0.00 0.00 0.00 65 1007.1
20260506160010 21 233 0.0 8.0 0.00 0.00 0.00 65 1007.6
20260506154503 21 83 1.6 11.3 0.00 0.00 0.00 66 1007.9
20260506153002 21 176 0.0 14.5 0.00 0.00 0.00 67 1008.0
20260506151600 21 146 0.0 0.0 0.00 0.00 0.00 68 1008.2
20260506150104 21 179 0.0 0.0 0.00 0.00 0.00 68 1008.3
20260506144558 21 241 1.6 16.1 0.00 0.00 0.00 69 1008.5
20260506143057 21 219 0.0 0.0 0.00 0.00 0.00 69 1008.4
20260506141555 20 68 0.0 8.0 0.00 0.00 0.00 70 1008.3
20260506140055 20 129 0.0 11.3 0.00 0.00 0.00 70 1008.2
20260506134615 20 110 1.6 9.7 0.00 0.00 0.00 72 1008.3
20260506133048 19 169 1.6 6.4 0.00 0.00 0.00 74 1008.6
20260506131604 18 181 1.6 8.0 0.00 0.00 0.00 75 1008.9
20260506130044 18 32 0.0 0.0 0.00 0.00 0.00 76 1008.9
20260506124541 18 8 0.0 0.0 0.00 0.00 0.00 76 1008.9
20260506123044 18 248 0.0 17.7 0.00 0.00 0.00 78 1008.7
20260506121538 17 242 0.0 1.6 0.00 0.00 0.00 79 1009.0
20260506120035 17 166 0.0 9.7 0.00 0.00 0.00 80 1009.0
20260506114539 16 211 0.0 0.0 0.00 0.00 0.00 82 1009.0
20260506113035 16 214 0.0 9.7 0.00 0.00 0.00 83 1009.4
20260506111530 15 75 0.0 11.3 0.00 0.00 0.00 84 1009.6
20260506110030 15 153 0.0 3.2 0.00 0.00 0.00 85 1009.2
20260506104528 15 84 0.0 3.2 0.00 0.00 0.00 85 1009.2
20260506103027 -17 0.0 0.0 0.00 0.00 0.00 1009.2
20260506101522 -17 0.0 0.0 0.00 0.00 0.00 1009.2
20260506100030 -17 0.0 0.0 0.00 0.00 0.00 1009.2
20260506094517 -17 0.0 0.0 0.00 0.00 0.00 1009.2
20260506093010 -17 0.0 0.0 0.00 0.00 0.00 1009.0
20260506091506 -17 0.0 0.0 0.00 0.00 0.00 1009.1
20260506090002 -17 0.0 0.0 0.00 0.00 0.00 1009.1
20260506084605 -17 0.0 0.0 0.00 0.00 0.00 1009.0
20260506083114 -17 0.0 0.0 0.00 0.00 0.00 1009.3
20260506081551 -17 0.0 0.0 0.00 0.00 0.00 1009.4
20260506073036 -17 0.0 0.0 0.00 0.00 0.00 1009.1
20260506071534 -17 0.0 0.0 0.00 0.00 0.00 1008.9
20260506061518 -17 0.0 0.0 0.00 0.00 0.00 1008.7
20260506050108 -17 0.0 0.0 0.00 0.00 0.00 1009.0
20260506044547 -17 212 0.0 0.0 0.00 0.00 0.00 1009.1
20260506043046 16 212 0.0 0.0 0.00 0.00 0.00 72 1009.2
20260506041544 16 196 0.0 0.0 0.00 0.00 0.00 71 1009.1
20260506040043 16 243 0.0 11.3 0.00 0.00 0.00 71 1009.1
20260506034543 16 215 0.0 0.0 0.00 0.00 0.00 71 1009.0
20260506033042 16 212 0.0 0.0 0.00 0.00 0.00 71 1008.9
20260506031541 17 228 0.0 0.0 0.00 0.00 0.00 69 1009.0